Regional Weather Roundup
Issued by NWS

Home | Current Version | Previous Version | Text Only | Print | Product List | Glossary On
Versions: 1 2 3 4 5 6 7 8 9 10 11 12 13 14 15 16 17 18 19 20 21 22 23 24 25 26 27 28 29 30 31 32 33 34 35 36 37 38 39 40 41 42 43 44 45 46 47 48 49 50
000
ASUS43 KOAX 231910
RWRNE

WEATHER ROUNDUP FOR NEBRASKA
NATIONAL WEATHER SERVICE OMAHA NE
200 PM CDT THU MAR 23 2017

NOTES: SATELLITE DATA IS BEING USED TO AUGMENT CLOUD COVER ABOVE
       12000 FEET.
       "FAIR" INDICATES FEW OR NO CLOUDS BELOW 12,000 FEET WITH NO
       SIGNIFICANT WEATHER AND/OR OBSTRUCTIONS TO VISIBILITY.

  * THESE STATIONS DO NOT REPORT WEATHER SUCH AS RAIN...SNOW OR FOG.

NEZ001>004-019>022-054>056-232000-
NEBRASKA PANHANDLE

CITY           SKY/WX    TMP DP  RH WIND       PRES   REMARKS
SCOTTSBLUFF    SUNNY     64  40  41 SE9       29.61F
ALLIANCE       SUNNY     61  40  45 CALM      29.60F
CHADRON        SUNNY     64  40  41 MISG      29.60S
KIMBALL        SUNNY     69  40  35 E8        29.63F
SIDNEY         CLOUDY    64  39  39 VRB3      29.63F
$$

NEZ057>060-069>072-079>082-232000-
SOUTHWEST NEBRASKA

CITY           SKY/WX    TMP DP  RH WIND       PRES   REMARKS
NORTH PLATTE   CLOUDY    61  53  75 SE9       29.63F
IMPERIAL       SUNNY     72  47  40 SW6       29.60F
LEXINGTON      CLOUDY    58  56  96 SE12      29.64F FOG
MCCOOK         SUNNY     78  53  41 S13G25    29.59F
OGALLALA       SUNNY     72  45  37 SW5       29.60F
$$

NEZ005>010-023>029-035>040-094-232000-
NORTH CENTRAL NEBRASKA

CITY           SKY/WX    TMP DP  RH WIND       PRES   REMARKS
VALENTINE      CLOUDY    56  44  64 SW14      29.61F
AINSWORTH      CLOUDY    55  49  82 S17       29.63F
BROKEN BOW     CLOUDY    53  31  42 S13G25    29.65F HAZE
O`NEILL        CLOUDY    53  50  90 S18G26    29.66F
ORD            LGT RAIN  51  49  92 SE14G21   29.65F FOG
THEDFORD       CLOUDY    57  50  75 S9G20     29.63F
$$

NEZ041-046>049-061>064-073>077-083>087-232000-
SOUTH CENTRAL NEBRASKA

CITY           SKY/WX    TMP DP  RH WIND       PRES   REMARKS
GRAND ISLAND   CLOUDY    56  54  93 SE17G24   29.71F FOG
AURORA         CLOUDY    57  53  85 S14       29.72F
HASTINGS       CLOUDY    60  54  80 S13G21    29.70F
HEBRON         CLOUDY    68  56  65 S23G32    29.72F
HOLDREGE       CLOUDY    63  56  78 S20G25    29.65F
KEARNEY *      CLOUDY    57  54  88 S15       29.67F
YORK           PTSUNNY   59  54  82 S17       29.75F THUNDER
$$

NEZ011>018-030>034-042>045-232000-
NORTHEAST NEBRASKA

CITY           SKY/WX    TMP DP  RH WIND       PRES   REMARKS
NORFOLK        CLOUDY    55  45  68 SE18      29.68F
ALBION         CLOUDY    55  50  86 S17G23    29.71F HAZE
BLAIR          PTSUNNY   64  42  45 S18G26    29.78F
FREMONT        CLOUDY    62  43  49 S9        29.78S THUNDER
TEKAMAH        CLOUDY    59  39  47 S16       29.80F
WAYNE          CLOUDY    56  44  63 S22G31    29.77R
$$

NEZ050>053-065>068-078-088>093-232000-
SOUTHEAST NEBRASKA

CITY           SKY/WX    TMP DP  RH WIND       PRES   REMARKS
LINCOLN        CLOUDY    68  52  56 S17       29.75F
OMAHA EPPLEY   PTSUNNY   65  42  43 S17G26    29.77F
BEATRICE       CLOUDY    69  55  62 S18G25    29.77S THUNDER
FALLS CITY     MOSUNNY   73  51  46 S29G37    29.79F
NEBRASKA CITY  PTSUNNY   70  42  36 S24G31    29.79F
PLATTSMOUTH    CLOUDY    67  43  42 S22G33    29.78F
$$

NEZ044-045-051>053-067-232000-
OMAHA AREA

CITY           SKY/WX    TMP DP  RH WIND       PRES   REMARKS
OMAHA EPPLEY   PTSUNNY   65  42  43 S17G26    29.77F
BLAIR          PTSUNNY   64  42  45 S18G26    29.78F
FREMONT        CLOUDY    62  43  49 S9        29.78S THUNDER
MILLARD        LGT RAIN  67  49  50 SE15G22   29.77F
OFFUTT AFB     CLOUDY    64  48  55 SE17G24   29.77F
PLATTSMOUTH    CLOUDY    67  43  42 S22G33    29.78F
WAHOO          CLOUDY    65  47  52 S13       29.78S
$$



USA.gov is the U.S. government's official web portal to all federal, state and local government web resources and services.